Location: Caltech
(34.1382°N, 118.1253°W)
Time: 09:32:12
(UTC-07:00)

OAO 2 Rocket - Visible Passes

Search period start: 28 May 2017 00:00
Search period end: 07 June 2017 00:00
Orbit: 677 x 746 km, 35.0° (Epoch: 27 May)

Date Brightness Start Highest point End Pass type
(mag) Time Alt. Az. Time Alt. Az. Time Alt. Az.
28 May 3.4 20:22:37 10° W 20:27:33 81° N 20:32:31 10° E visible
28 May 3.3 22:07:26 10° W 22:12:18 59° SSW 22:12:33 58° S visible
29 May 3.2 21:09:44 10° W 21:14:40 75° SSW 21:17:50 22° ESE visible
29 May 5.2 22:54:54 10° W 22:56:46 19° WSW 22:56:46 19° WSW visible
30 May 3.8 21:56:59 10° W 22:01:34 39° SSW 22:02:04 38° S visible
31 May 3.6 20:59:12 10° W 21:03:59 54° SSW 21:07:23 19° SE visible
31 May 5.5 22:45:07 10° WSW 22:46:20 14° WSW 22:46:20 14° WSW visible
01 Jun 4.6 21:46:46 10° W 21:50:45 25° SSW 21:51:41 23° SSW visible
02 Jun 4.2 20:48:46 10° W 20:53:14 35° SSW 20:57:03 13° SE visible
03 Jun 5.3 21:37:13 10° WSW 21:39:51 14° SW 21:41:26 13° SSW visible
04 Jun 5.0 20:38:39 10° W 20:42:24 22° SSW 20:46:08 10° SSE visible
06 Jun 5.6 20:29:28 10° WSW 20:31:28 12° SW 20:33:28 10° S visible
